Regional Weather Roundup
Issued by NWS

Home | Current Version | Previous Version | Text Only | Print | Product List | Glossary Off
Versions: 1 2 3 4 5 6 7 8 9 10 11 12 13 14 15 16 17 18 19 20 21 22 23 24 25 26 27

000
ASUS45 KSLC 170110
RWRUT

UTAH REGIONAL WEATHER ROUNDUP
NATIONAL WEATHER SERVICE SALT LAKE CITY UT
700 PM MDT WED APR 16 2014

UTZ001>011-023>025-170200-

NORTHERN UTAH

CITY           SKY/WX    TMP DP  RH WIND       PRES   REMARKS
HILL AFB       MOSUNNY   53  15  21 VRB3      29.98F
LOGAN          SUNNY     55  19  24 W7        29.96F
OGDEN          MOSUNNY   55  14  19 CALM      29.98S
PROVO AIRPORT  MOSUNNY   55  18  22 NW12      29.99S
SALT LAKE CITY MOSUNNY   56  11  16 N6        29.99S
VERNAL         PTSUNNY   55  17  22 N6        29.92S
WENDOVER       SUNNY     59  16  18 E6        29.97R
HEBER CITY     MOSUNNY   52  18  25 SW13      29.96S
WEST JORDAN    SUNNY     54  19  26 NW8       30.00S

$$

UTZ012>022-026-027-170200-

SOUTHERN UTAH

CITY           SKY/WX    TMP DP  RH WIND       PRES   REMARKS
BRYCE CANYON   MOSUNNY   49  21  33 NW18      30.01S
CEDAR CITY     MOSUNNY   60  21  22 NE8       29.93F
MILFORD        SUNNY     60  21  22 NE9       29.94S
MOAB/CYNLANDS  SUNNY     62  16  16 W7        29.88S
PRICE          SUNNY     56  17  21 W14G24    29.94R
ST GEORGE      PTCLDY    77  27  15 NW7       29.80S
KANAB            N/A     66  27  22 NW13      29.93R

$$

REGIONAL REPORTS     COLORADO/ARIZONA

CITY           SKY/WX    TMP DP  RH WIND       PRES   REMARKS
CRAIG, CO      MOCLDY    50  11  20 VRB3      29.96S
GRAND JUNCTION PTCLDY    58  13  17 W8        29.90S
RIFLE          PTCLDY    55  13  18 W10       29.91R
MONTROSE       CLOUDY    54  19  25 NW7       29.96R
CORTEZ         PTCLDY    56  25  30 W10       29.93R
PAGE, AZ       MOSUNNY   68  27  21 E5        29.85S
GRAND CANYON   MOSUNNY   63  16  16 NW9G20    29.95R
KINGMAN        SUNNY     81  12   7 W15       29.79S
FLAGSTAFF      PTSUNNY   64   8  11 W9G17     29.95R

$$

REGIONAL REPORTS    NEVADA/IDAHO/WYOMING

CITY           SKY/WX    TMP DP  RH WIND       PRES   REMARKS
LAS VEGAS, NV  MOSUNNY   87  16   7 S3        29.67S
ELY            SUNNY     57  25  29 NW9       29.98S
ELKO           MOSUNNY   57  26  30 SW9       29.97R
POCATELLO, ID  MOSUNNY   55   7  14 W14       29.98R
BURLEY         SUNNY     55  13  18 W14       29.97S
EVANSTON, WY   SUNNY     45   8  22 W14       30.01R
ROCK SPRINGS   PTCLDY    48   6  18 NW16      29.96R

$$



USA.gov is the U.S. government's official web portal to all federal, state and local government web resources and services.